{"data":{"norad_id":52156,"epoch":"2026-09-20T22:31:11.915904Z","epoch_age_seconds":83059,"freshness":"FRESH","line1":"1 52156U 22032D   26263.93833236  .00001923  00000+0  11597-3 0  9994","line2":"2 52156  97.5746 315.5032 0006381 171.8110 188.3226 15.11943001245315","mean_motion":15.11943001,"eccentricity":0.0006381,"inclination_deg":97.5746,"raan_deg":315.5032,"arg_perigee_deg":171.811,"mean_anomaly_deg":188.3226,"bstar":0.00011597,"rev_number":24531,"period_min":95.241685635476,"perigee_km":525.86672360212,"apogee_km":534.68323897264,"semimajor_km":6908.4119812874,"source":"CELESTRAK","updated_at":"2026-09-21T09:00:08.491878Z"}}